TimePST,TemperatureF,Dew PointF,Humidity,Sea Level PressureIn,VisibilityMPH,Wind Direction,Wind SpeedMPH,Gust SpeedMPH,PrecipitationIn,Events,Conditions,WindDirDegrees,DateUTC
12:15 AM,46.4,42.8,87,29.81,10.0,NE,4.6,-,N/A,,Unknown,40,2012-12-12 08:15:00
12:35 AM,44.6,42.8,93,29.82,9.0,North,11.5,-,0.01,,Unknown,350,2012-12-12 08:35:00
12:55 AM,44.6,41.0,87,29.81,10.0,Calm,Calm,-,0.03,,Unknown,0,2012-12-12 08:55:00
1:15 AM,42.8,41.0,93,29.81,10.0,SE,3.5,-,0.01,,Unknown,130,2012-12-12 09:15:00
1:35 AM,42.8,42.8,100,29.82,10.0,South,5.8,-,0.01,,Unknown,180,2012-12-12 09:35:00
1:55 AM,42.8,42.8,100,29.82,10.0,SSE,4.6,-,0.01,,Unknown,150,2012-12-12 09:55:00
2:15 AM,42.8,42.8,100,29.82,10.0,SE,4.6,-,N/A,,Unknown,130,2012-12-12 10:15:00
2:35 AM,42.8,41.0,93,29.82,9.0,South,9.2,-,N/A,,Unknown,180,2012-12-12 10:35:00
2:55 AM,42.8,41.0,93,29.83,9.0,South,8.1,-,0.01,,Unknown,190,2012-12-12 10:55:00
3:15 AM,41.0,39.2,93,29.83,10.0,SE,4.6,-,0.01,,Unknown,140,2012-12-12 11:15:00
3:35 AM,42.8,42.8,100,29.84,9.0,South,4.6,-,0.01,,Unknown,170,2012-12-12 11:35:00
3:55 AM,42.8,42.8,100,29.84,10.0,ESE,5.8,-,0.01,,Unknown,120,2012-12-12 11:55:00
4:15 AM,42.8,42.8,100,29.85,10.0,SE,5.8,-,N/A,,Unknown,140,2012-12-12 12:15:00
4:35 AM,42.8,42.8,100,29.85,10.0,SSE,8.1,-,0.01,,Unknown,150,2012-12-12 12:35:00
4:55 AM,41.0,41.0,100,29.85,10.0,SSE,6.9,-,0.01,,Unknown,150,2012-12-12 12:55:00
5:15 AM,41.0,41.0,100,29.85,10.0,SE,6.9,-,N/A,,Unknown,140,2012-12-12 13:15:00
5:35 AM,41.0,41.0,100,29.86,10.0,SSE,9.2,-,N/A,,Unknown,160,2012-12-12 13:35:00
5:55 AM,41.0,41.0,100,29.86,10.0,SE,8.1,-,N/A,,Unknown,140,2012-12-12 13:55:00
6:15 AM,39.2,39.2,100,29.87,10.0,SSE,8.1,-,N/A,,Unknown,160,2012-12-12 14:15:00
6:35 AM,39.2,39.2,100,29.87,10.0,SE,8.1,-,N/A,,Unknown,140,2012-12-12 14:35:00
6:55 AM,41.0,41.0,100,29.88,10.0,ESE,8.1,-,N/A,,Unknown,110,2012-12-12 14:55:00
7:15 AM,41.0,41.0,100,29.88,9.0,ESE,6.9,-,N/A,,Mostly Cloudy,120,2012-12-12 15:15:00
7:35 AM,39.2,39.2,100,29.89,10.0,SSE,8.1,-,N/A,,Mostly Cloudy,150,2012-12-12 15:35:00
7:55 AM,41.0,41.0,100,29.89,7.0,SSE,6.9,-,N/A,,Mostly Cloudy,150,2012-12-12 15:55:00
8:15 AM,39.2,39.2,100,29.90,10.0,SSE,8.1,-,N/A,,Mostly Cloudy,150,2012-12-12 16:15:00
8:35 AM,42.8,42.8,100,29.91,9.0,SE,8.1,-,N/A,,Mostly Cloudy,130,2012-12-12 16:35:00
8:55 AM,41.0,41.0,100,29.91,10.0,SSE,8.1,-,N/A,,Mostly Cloudy,160,2012-12-12 16:55:00
9:15 AM,41.0,41.0,100,29.92,9.0,SSE,6.9,-,N/A,,Mostly Cloudy,150,2012-12-12 17:15:00
9:35 AM,42.8,41.0,93,29.92,8.0,SSE,8.1,-,N/A,,Mostly Cloudy,150,2012-12-12 17:35:00
9:55 AM,44.6,42.8,93,29.93,9.0,SE,9.2,-,N/A,,Scattered Clouds,140,2012-12-12 17:55:00
10:15 AM,44.6,42.8,93,29.93,10.0,SE,6.9,-,N/A,,Scattered Clouds,140,2012-12-12 18:15:00
10:35 AM,44.6,42.8,93,29.94,10.0,SE,9.2,-,0.01,,Scattered Clouds,140,2012-12-12 18:35:00
10:55 AM,44.6,42.8,93,29.94,10.0,SSE,6.9,-,0.02,,Mostly Cloudy,150,2012-12-12 18:55:00
11:15 AM,44.6,42.8,93,29.93,10.0,SSE,8.1,-,N/A,,Mostly Cloudy,160,2012-12-12 19:15:00
11:35 AM,46.4,44.6,93,29.93,10.0,SSE,6.9,-,N/A,,Mostly Cloudy,150,2012-12-12 19:35:00
11:55 AM,46.4,42.8,87,29.93,10.0,SSE,9.2,-,N/A,,Mostly Cloudy,160,2012-12-12 19:55:00
12:15 PM,48.2,44.6,87,29.92,10.0,SSE,9.2,-,N/A,,Mostly Cloudy,160,2012-12-12 20:15:00
12:35 PM,48.2,44.6,87,29.92,9.0,SSE,8.1,-,N/A,,Unknown,160,2012-12-12 20:35:00
12:55 PM,48.2,44.6,87,29.92,10.0,SSE,8.1,-,N/A,,Mostly Cloudy,150,2012-12-12 20:55:00
1:15 PM,48.2,44.6,87,29.91,10.0,SE,6.9,-,N/A,,Overcast,140,2012-12-12 21:15:00
1:35 PM,48.2,44.6,87,29.91,10.0,South,6.9,-,N/A,,Overcast,170,2012-12-12 21:35:00
1:55 PM,48.2,42.8,82,29.90,10.0,South,4.6,-,N/A,,Overcast,190,2012-12-12 21:55:00
2:15 PM,46.4,44.6,93,29.91,10.0,SSW,5.8,-,0.01,,Overcast,200,2012-12-12 22:15:00
2:35 PM,46.4,44.6,93,29.91,8.0,West,16.1,-,0.04,,Mostly Cloudy,280,2012-12-12 22:35:00
2:55 PM,44.6,42.8,93,29.92,9.0,West,5.8,-,0.08,,Mostly Cloudy,260,2012-12-12 22:55:00
3:15 PM,44.6,42.8,93,29.92,10.0,SSW,3.5,-,0.01,,Overcast,210,2012-12-12 23:15:00
3:35 PM,46.4,42.8,87,29.93,10.0,Calm,Calm,-,0.01,,Overcast,0,2012-12-12 23:35:00
4:15 PM,44.6,44.6,100,29.93,10.0,SSE,4.6,-,N/A,,Overcast,150,2012-12-13 00:15:00
4:55 PM,44.6,44.6,100,29.93,10.0,SSE,5.8,-,N/A,,Overcast,150,2012-12-13 00:55:00
5:15 PM,44.6,44.6,100,29.94,10.0,SE,6.9,-,0.01,,Overcast,140,2012-12-13 01:15:00
5:35 PM,44.6,44.6,100,29.94,10.0,ESE,4.6,-,0.01,,Overcast,120,2012-12-13 01:35:00
5:55 PM,42.8,41.0,93,29.94,10.0,SE,4.6,-,0.01,,Scattered Clouds,140,2012-12-13 01:55:00
6:15 PM,42.8,42.8,100,29.95,10.0,ESE,3.5,-,N/A,,Partly Cloudy,120,2012-12-13 02:15:00
6:35 PM,42.8,42.8,100,29.95,10.0,SE,4.6,-,N/A,,Mostly Cloudy,130,2012-12-13 02:35:00
6:55 PM,42.8,42.8,100,29.95,10.0,ESE,4.6,-,N/A,,Mostly Cloudy,120,2012-12-13 02:55:00
7:15 PM,42.8,42.8,100,29.95,10.0,SE,4.6,-,N/A,,Mostly Cloudy,130,2012-12-13 03:15:00
7:35 PM,41.0,41.0,100,29.96,10.0,SE,5.8,-,N/A,,Scattered Clouds,140,2012-12-13 03:35:00
7:55 PM,41.0,41.0,100,29.96,10.0,SE,4.6,-,N/A,,Scattered Clouds,140,2012-12-13 03:55:00
8:15 PM,41.0,41.0,100,29.96,10.0,SE,5.8,-,N/A,,Scattered Clouds,130,2012-12-13 04:15:00
8:35 PM,39.2,39.2,100,29.97,10.0,SSE,5.8,-,N/A,,Mostly Cloudy,150,2012-12-13 04:35:00
8:55 PM,39.2,39.2,100,29.98,10.0,SE,5.8,-,N/A,,Mostly Cloudy,130,2012-12-13 04:55:00
9:15 PM,41.0,39.2,93,29.99,10.0,SE,6.9,-,N/A,,Mostly Cloudy,140,2012-12-13 05:15:00
9:35 PM,41.0,39.2,93,29.99,10.0,SE,5.8,-,N/A,,Overcast,140,2012-12-13 05:35:00
9:55 PM,41.0,39.2,93,29.99,10.0,SE,5.8,-,N/A,,Overcast,140,2012-12-13 05:55:00
10:15 PM,39.2,39.2,100,29.99,8.0,SSE,6.9,-,N/A,,Overcast,160,2012-12-13 06:15:00
10:35 PM,39.2,39.2,100,30.00,8.0,SE,9.2,-,N/A,,Overcast,140,2012-12-13 06:35:00
10:55 PM,39.2,39.2,100,30.00,10.0,SSE,4.6,-,N/A,,Mostly Cloudy,150,2012-12-13 06:55:00
11:15 PM,39.2,39.2,100,30.01,9.0,SSE,4.6,-,N/A,,Overcast,150,2012-12-13 07:15:00
11:35 PM,39.2,39.2,100,30.01,10.0,SSE,4.6,-,N/A,,Overcast,150,2012-12-13 07:35:00
11:55 PM,39.2,37.4,93,30.02,10.0,SE,5.8,-,N/A,,Overcast,140,2012-12-13 07:55:00